FENGYUN 1C DEB

Satellite information

Favourite Embed

Satellite Type and Status

DEBRISIN ORBIT

Key statistics

Satellite FENGYUN 1C DEB at a glance.

Uptime

9715

Days in orbit

Revolutions

≈ 13.6

Per day

Orbit

SSO

Sun Synchronous Orbit

Inclination

99.3

Latest

Satellite identification and parameters

Extended collection of information and parameters for FENGYUN 1C DEB.

Object identification

Identified? True

Debris? True

Object name: FENGYUN 1C DEB

International designator: 1999-025CBM

Object number (NORAD): 31655

Object ID (CCSDS): 31655

Country: PEOPLES REPUBLIC OF CHINA (PRC)

Current information (Y/N): Y

RCS size: SMALL

Orbital parameters

Period: 105.582 minutes

Inclination: 99.2845 deg

SMA: 7399.796 km

Apoapsis: 1235.538 km

Periapsis: 807.783 km

RAAN: 293.4786 deg

Eccentricy: 0.02890313

Argument of periapsis: 135.6055 deg

Mean anomaly: 43.7177 deg

Mean motion: 13.63870632 rev/day

Mean motion (dot): 0.00003935 rev/day2

B* drag term: 0.0037706702 1/REarth

Two-line elements (TLE)

Creation date: Dec. 14, 2025, 3:07 a.m.

Reference frame: TEME

Reference center: EARTH

Epoch: Dec. 13, 2025, 3 p.m. UTC

TLE line 0: 0 FENGYUN 1C DEB

TLE line 1: 1 31655U 99025CBM 25347.62548255 .00003935 00000-0 37707-2 0 9999

TLE line 2: 2 31655 99.2845 293.4786 0289031 135.6055 43.7177 13.63870632597319

Live tracking on map

Real-time ground track for satellite FENGYUN 1C DEB.

In-orbit conjunctions

A list of the most updated potential collisions computed for object FENGYUN 1C DEB.

Target Orbit TCA Probability of collision Miss distance Type
OBJECT D SSO 2025-09-09 19:03:14 0.0001131612 232.0 (m) UNKNOWN
OBJECT B LEO 2025-03-02 04:30:29 0.0001185049 249.0 (m) UNKNOWN
SL-16 DEB LEO 2024-11-12 14:59:25 0.000119455 498.0 (m) DEBRIS

Associated space launch

Chinese polar orbiting meteorological satellite

FENGYUN 1C DEB was lifted into orbit during the mission ‘Long March 4B | Feng Yun 1C’, on board a Long March 4B space rocket.

The launch took place on May 10, 1999, 1:33 a.m. from Launch Complex 7.

For more information about the launch, click the button.

Launch to space Long March 4B | Feng Yun 1C
Long March 4B | Feng Yun 1C

Agency: N/A

Status: Launch Successful

Launch date: May 10, 1999, 1:33 a.m. UTC

Rocket: Long March 4B

Launch pad: Launch Complex 7

Location: Taiyuan Satellite Launch Center, People's Republic of China

...

Latest news about this satellite

There are no fresh news available about this satellite. Check back as we update our databases every day.


Newsletter sign-up

Weekly statistics, charts and insights to help you stay on top of the space industry.